Regional Weather Roundup
Issued by NWS

Home | Current Version | Previous Version | Graphics & Text | Print | Product List | Glossary On
Versions: 1 2 3 4 5 6 7 8 9 10 11 12 13 14 15 16 17 18 19 20 21 22 23 24 25 26 27 28 29 30 31 32 33 34 35 36 37 38 39 40 41 42 43 44 45 46 47 48 49 50
000
ASUS43 KDMX 172207
RWRIA

WEATHER ROUNDUP FOR IOWA
NATIONAL WEATHER SERVICE DES MOINES IA
500 PM CDT FRI APR 17 2015

NOTE: "FAIR" INDICATES FEW OR NO CLOUDS BELOW 12,000 FEET WITH NO
SIGNIFICANT WEATHER AND/OR OBSTRUCTIONS TO VISIBILITY.

* - THESE STATIONS ARE NOT NWS STATIONS...THUS NOT UNDER NWS
QUALITY CONTROL.  THEY ALSO DO NOT REPORT WEATHER SUCH
AS PRECIPITATION OR FOG.

IAZ001>003-012>014-020>022-031>034-043>046-172300-
   NORTHWEST IOWA

CITY           SKY/WX    TMP DP  RH WIND       PRES   REMARKS
CARROLL *      MOSUNNY   77  46  33 NW5       30.00F
CHEROKEE *     CLOUDY    73  45  35 SE5       30.02F
DENISON *      SUNNY     73  50  43 VRB5      29.98F
LE MARS *      SUNNY     75  45  33 SE5       30.02F
ORANGE CITY *  MOSUNNY   72  43  35 CALM      30.03S
SHELDON *      MOSUNNY   73  41  31 CALM      30.02S
SIOUX CITY     CLOUDY    76  48  37 VRB3      30.01F
SPENCER        PTSUNNY   75  42  30 CALM      30.03S
STORM LAKE *   SUNNY     73  43  33 VRB3      30.03F
$$

IAZ055>058-069>071-079>083-090>094-172300-
   SOUTHWEST IOWA

CITY           SKY/WX    TMP DP  RH WIND       PRES   REMARKS
ATLANTIC *     MOSUNNY   75  52  43 SE6       29.99F
AUDUBON *      MOSUNNY   75  48  38 S3        30.01F
CLARINDA *     SUNNY     75  54  46 E7        29.99F
COUNCIL BLFS * PTSUNNY   73  54  49 E7        29.99F
CRESTON *      MOSUNNY   73  52  46 CALM      30.00F
HARLAN  *      MOSUNNY   75  50  41 VRB5      30.03F
LAMONI         PTSUNNY   77  56  48 CALM      29.98F
RED OAK *      SUNNY     75  54  46 SE9       29.98F
SHENANDOAH *   SUNNY     75  55  50 E8        29.98F
$$

IAZ047>049-059>061-072>074-084-172300-
   CENTRAL IOWA

CITY           SKY/WX    TMP DP  RH WIND       PRES   REMARKS
AMES           MOSUNNY   78  49  35 CALM      29.99F
ANKENY *       MOSUNNY   79  52  38 S7        29.99F
CHARITON *     PTSUNNY   75  52  43 CALM      30.00F
DES MOINES     PTSUNNY   78  49  35 SW7       30.00F
GRINNELL*      MOSUNNY   79  48  34 S6        30.00S
KNOXVILLE *    MOSUNNY   75  50  41 CALM      29.99S HAZE
MARSHALLTOWN   MOSUNNY   76  47  35 CALM      29.99F
PELLA *        MOSUNNY   77  55  47 SW6       30.01S
PERRY *          N/A     77  46  33 SE7       29.99F
$$

IAZ004>006-015-016-023>025-035-036-172300-
   NORTH CENTRAL IOWA

CITY           SKY/WX    TMP DP  RH WIND       PRES   REMARKS
ALGONA *       SUNNY     73  43  33 N5        30.02S
CLARION *      SUNNY     77  45  31 NW9       30.00F
ESTHERVILLE    MOSUNNY   75  42  30 W9        30.02F
FORT DODGE *   PTSUNNY   77  46  33 NW3       30.02S
MASON CITY     SUNNY     76  44  32 W3        30.02F
FOREST CITY *  SUNNY     73  43  33 NW6       30.01S
IOWA FALLS *     N/A     75  45  33 SE3       30.01S
$$

IAZ007>011-017>019-026>030-037>042-050>054-066-172300-
   NORTHEAST IOWA

CITY           SKY/WX    TMP DP  RH WIND       PRES   REMARKS
CEDAR RAPIDS   MOSUNNY   77  50  38 CALM      29.98F
CHARLES CITY * SUNNY     77  43  29 N6G12     30.01S
CLINTON *      SUNNY     77  48  36 CALM      30.02S
DECORAH *      MOSUNNY   75  43  31 VRB6      30.00S
DUBUQUE        SUNNY     77  47  34 W7        30.00F
MONTICELLO *   MOSUNNY   79  48  34 W10       29.99S
OELWEIN *      SUNNY     77  46  33 CALM      30.00F
WATERLOO       SUNNY     77  46  33 W6        29.98F
$$

IAZ064-065-067-068-078-172300-
   EAST CENTRAL IOWA

CITY           SKY/WX    TMP DP  RH WIND       PRES   REMARKS
DAVENPORT      SUNNY     77  44  30 VRB3      30.00F
IOWA CITY      SUNNY     78  50  37 S5        30.00F
MT. PLEASANT * CLOUDY    77  48  36 CALM      29.99F
MUSCATINE *    MOSUNNY   77  48  36 CALM      29.99F
QUAD CITIES    MOSUNNY   80  46  30 VRB3      29.98F
$$

IAZ062-063-075>077-085>089-095>099-172300-
   SOUTHEAST IOWA

CITY           SKY/WX    TMP DP  RH WIND       PRES   REMARKS
BURLINGTON     SUNNY     78  52  40 N3        29.99S
FAIRFIELD *    MOSUNNY   77  50  38 CALM      30.00S
FORT MADISON * SUNNY     79  52  38 S7        30.00S
KEOKUK *       SUNNY     79  54  41 VRB6      29.98S
OSKALOOSA *    CLOUDY    79  48  34 E6G20     30.00S
CENTERVILLE *  MOSUNNY   77  55  47 E6        30.00F
OTTUMWA        MOSUNNY   77  50  38 CALM      29.99F
WASHINGTON *   SUNNY     79  50  36 VRB3      30.00S
$$

ABBREVIATIONS USED IN REMARKS
   TC - TEMPERATURES IN CELSIUS
  WCI - WIND CHILL INDEX
   HX - HEAT INDEX
  VSB - VISIBILITY
$$




USA.gov is the U.S. government's official web portal to all federal, state and local government web resources and services.